sat.trackr.live / text

‹ back to catalog

STARLINK-36281

NORAD 67605 · 2026-018S

PAYLOAD ACTIVE UNKNOWN

§ Identity

Operator
Country
US
Launch date
2026-01-29
Launch site
AFWTR
Launch vehicle
Mass (kg)
RCS (m²)

Purposes: comms

External: N2YO · Heavens-Above · Gunter

§ Orbital elements

Epoch: 2026-09-19T10:33:26.652384Z

Period
93.91 min
Inclination
97.2858°
Eccentricity
0.0000623
Mean motion
15.33454467 rev/d
Perigee alt
465.1 km
Apogee alt
465.9 km
Semi-major
6,843.7 km
B*
3.8376e-4
RAAN
325.8493°
Arg perigee
87.8824°
Mean anomaly
272.2490°
Rev number
3,702

§ Raw data

STARLINK-362811 67605U 26018S   26262.43989181  .00012338  00000+0  38376-3 0  99982 67605  97.2858 325.8493 0000623  87.8824 272.2490 15.33454467 37027

JSON: /api/v1/satellites/67605 · /tle

For live sub-satellite position, see the globe view (requires WebGL).

§ Visibility from observer

Set your observer location to see the next 7 days of passes ≥ 10°. The values pass through the URL so the page stays shareable.

No JS? Fill the form by hand. The geolocation button needs JavaScript.